DW1183 Weather Reports


Display with metric or nautical units.
time (UTC)temp
F
wind
direction
speed
MPH
gust
MPH
rain 1hr
in
rain 24hr
in
rain mn
in
humidity
%
barometer
mb
20210925040116 71 125 0.0 0.0 0.00 0.00 0.00 72 1018.4
20210925034629 72 125 0.0 0.0 0.00 0.00 0.00 72 1018.5
20210925033048 72 125 0.0 0.0 0.00 0.00 0.00 72 1018.5
20210925031648 72 125 0.0 0.0 0.00 0.00 0.00 72 1018.5
20210925030115 72 125 0.0 0.0 0.00 0.00 0.00 70 1018.4
20210925024611 72 125 0.0 0.0 0.00 0.00 0.00 69 1018.3
20210925023058 72 125 0.0 0.0 0.00 0.00 0.00 68 1018.2
20210925021607 72 125 0.0 1.0 0.00 0.00 0.00 67 1018.0
20210925020038 73 125 0.0 2.0 0.00 0.00 0.00 67 1018.1
20210925014650 73 125 0.0 0.0 0.00 0.00 0.00 66 1017.8
20210925013036 73 125 0.0 3.0 0.00 0.00 0.00 65 1017.9
20210925011534 74 125 1.0 5.0 0.00 0.00 0.00 63 1017.7
20210925010042 74 137 1.0 4.0 0.00 0.00 0.00 63 1017.7
20210925004555 75 138 1.0 4.0 0.00 0.00 0.00 61 1017.5
20210925003047 76 137 1.0 4.0 0.00 0.00 0.00 60 1017.5
20210925001543 77 130 1.0 5.0 0.00 0.00 0.00 57 1017.7
20210925000110 79 127 0.0 4.0 0.00 0.00 0.00 55 1017.6
20210924234617 81 143 1.0 5.0 0.00 0.00 0.00 53 1017.6
20210924233056 82 134 2.0 7.0 0.00 0.00 0.00 51 1017.5
20210924231550 83 132 2.0 6.0 0.00 0.00 0.00 51 1017.6
20210924230055 83 101 0.0 4.0 0.00 0.00 0.00 50 1017.6
20210924224531 83 130 1.0 7.0 0.00 0.00 0.00 51 1017.4
20210924223052 83 140 1.0 5.0 0.00 0.00 0.00 48 1017.6
20210924221645 83 124 0.0 4.0 0.00 0.00 0.00 50 1017.6
20210924220042 83 95 1.0 8.0 0.00 0.00 0.00 48 1017.5
20210924214605 83 106 2.0 6.0 0.00 0.00 0.00 50 1017.6
20210924213036 83 118 1.0 6.0 0.00 0.00 0.00 48 1017.6
20210924211529 82 88 1.0 6.0 0.00 0.00 0.00 49 1017.7
20210924210022 83 319 1.0 8.0 0.00 0.00 0.00 49 1017.6
20210924204604 83 138 2.0 6.0 0.00 0.00 0.00 50 1017.8
20210924203058 83 148 1.0 4.0 0.00 0.00 0.00 50 1017.9
20210924201530 83 253 1.0 4.0 0.00 0.00 0.00 49 1017.9
20210924200026 83 166 1.0 3.0 0.00 0.00 0.00 48 1018.2
20210924194517 83 189 1.0 6.0 0.00 0.00 0.00 47 1018.3
20210924193041 82 190 1.0 5.0 0.00 0.00 0.00 47 1018.6
20210924191532 83 116 0.0 5.0 0.00 0.00 0.00 47 1018.8
20210924190014 83 137 0.0 7.0 0.00 0.00 0.00 45 1019.0
20210924184524 83 128 2.0 7.0 0.00 0.00 0.00 45 1019.2
20210924183008 83 119 1.0 6.0 0.00 0.00 0.00 46 1019.3
20210924181507 82 100 1.0 6.0 0.00 0.00 0.00 46 1019.5
20210924174619 82 237 1.0 7.0 0.00 0.00 0.00 48 1020.0
20210924173129 81 285 2.0 5.0 0.00 0.00 0.00 46 1020.0
20210924171556 81 302 1.0 4.0 0.00 0.00 0.00 47 1020.1
20210924170053 81 302 1.0 11.0 0.00 0.00 0.00 50 1020.3
20210924164609 81 257 1.0 7.0 0.00 0.00 0.00 52 1020.4
20210924163106 80 181 0.0 8.0 0.00 0.00 0.00 53 1020.5
20210924161653 80 59 1.0 5.0 0.00 0.00 0.00 54 1020.4
20210924160116 80 175 0.0 4.0 0.00 0.00 0.00 55 1020.3
20210924154539 79 159 1.0 7.0 0.00 0.00 0.00 54 1020.4
20210924153039 79 240 1.0 4.0 0.00 0.00 0.00 57 1020.4
20210924151614 78 175 1.0 7.0 0.00 0.00 0.00 59 1020.0
20210924150018 78 60 2.0 7.0 0.00 0.00 0.00 60 1019.8
20210924144535 76 314 0.0 4.0 0.00 0.00 0.00 64 1019.7
20210924143031 75 316 1.0 5.0 0.00 0.00 0.00 70 1019.6
20210924141511 74 136 0.0 3.0 0.00 0.00 0.00 72 1019.6
20210924140149 72 56 0.0 4.0 0.00 0.00 0.00 80 1019.6
20210924134708 70 115 0.0 2.0 0.00 0.00 0.00 85 1019.6
20210924133129 69 117 0.0 4.0 0.00 0.00 0.00 87 1019.6
20210924131707 68 136 0.0 0.0 0.00 0.00 0.00 88 1019.4
20210924130123 67 136 0.0 2.0 0.00 0.00 0.00 87 1019.4
20210924124700 67 135 0.0 1.0 0.00 0.00 0.00 88 1019.4
20210924123050 67 136 0.0 2.0 0.00 0.00 0.00 87 1019.1
20210924121541 67 136 0.0 1.0 0.00 0.00 0.00 87 1019.0
20210924120056 67 136 0.0 0.0 0.00 0.00 0.00 87 1018.9
20210924114614 66 136 0.0 2.0 0.00 0.00 0.00 86 1018.7
20210924113110 66 136 0.0 0.0 0.00 0.00 0.00 85 1018.7
20210924111534 66 136 0.0 0.0 0.00 0.00 0.00 85 1018.6
20210924110112 66 136 0.0 0.0 0.00 0.00 0.00 86 1018.4
20210924104600 66 136 0.0 0.0 0.00 0.00 0.00 85 1018.5
20210924103051 66 136 0.0 0.0 0.00 0.00 0.00 84 1018.4
20210924101721 66 136 0.0 0.0 0.00 0.00 0.00 84 1018.4
20210924100034 66 136 0.0 0.0 0.00 0.00 0.00 84 1018.2
20210924094545 66 136 0.0 0.0 0.00 0.00 0.00 84 1018.3
20210924093040 67 136 0.0 0.0 0.00 0.00 0.00 83 1018.3
20210924083018 69 136 0.0 0.0 0.00 0.00 0.00 84 1018.0
20210924081519 69 136 0.0 0.0 0.00 0.00 0.00 84 1018.0
20210924080013 69 136 0.0 1.0 0.00 0.00 0.00 84 1018.0
20210924074530 69 136 0.0 0.0 0.00 0.00 0.00 84 1018.0
20210924073015 69 136 0.0 0.0 0.00 0.00 0.00 82 1018.0
20210924071519 69 136 0.0 0.0 0.00 0.00 0.00 79 1018.0
20210924070011 69 136 0.0 0.0 0.00 0.00 0.00 78 1017.9
20210924064515 70 136 0.0 2.0 0.00 0.00 0.00 77 1018.0
20210924061506 70 136 0.0 0.0 0.00 0.00 0.00 75 1017.8
20210924060008 70 136 0.0 0.0 0.00 0.00 0.00 73 1017.7
20210924054501 70 136 0.0 0.0 0.00 0.00 0.00 72 1017.8
20210924053121 70 136 0.0 0.0 0.00 0.00 0.00 72 1017.8
20210924051649 70 136 0.0 1.0 0.00 0.00 0.00 71 1017.8
20210924050107 70 136 0.0 0.0 0.00 0.00 0.00 71 1018.0
20210924044739 71 136 0.0 0.0 0.00 0.00 0.00 72 1018.1
20210924043133 71 136 0.0 2.0 0.00 0.00 0.00 71 1018.1
20210924041713 71 136 0.0 1.0 0.00 0.00 0.00 72 1018.1